Regional Weather Roundup
Issued by NWS Bismarck, ND

Home | Current Version | Previous Version | Text Only | Print | Product List | Glossary On
Versions: 1 2 3 4 5 6 7 8 9 10 11 12 13 14 15 16 17 18 19 20 21 22 23 24 25 26 27 28 29 30 31 32 33 34 35 36 37 38 39 40 41 42 43 44 45 46 47 48 49 50
000
ASUS43 KBIS 282110
RWRBIS

NWR BROADCAST TEXT
NATIONAL WEATHER SERVICE BISMARCK ND
400 PM CDT TUE JUL 28 2015

NOTE: "FAIR" INDICATES FEW OR NO CLOUDS BELOW 12,000 FEET WITH NO
SIGNIFICANT WEATHER AND/OR OBSTRUCTIONS TO VISIBILITY.


CITY           SKY/WX    TMP DP  RH WIND       PRES   REMARKS
WILLISTON      LGT RAIN  60  55  83 W30G49    29.62R
MINOT          CLOUDY    66  50  56 SW28G46   29.52S
MINOT AFB      PTSUNNY   66  55  68 SW31G48   29.48S SQUALL
BISMARCK       CLOUDY    72  50  45 W31G46    29.76R
DICKINSON      CLOUDY    63  46  54 W37G49    29.80R
GARRISON         N/A     68  52  56 W35G47    29.63R
HETTINGER ARPT CLOUDY    66  45  46 W39G54    29.92R
JAMESTOWN      PTSUNNY   73  51  46 W22G30    29.71R
BEACH          MOCLDY    63  46  55 W40G60    29.88R
CROSBY         LGT RAIN  57  57 100 W37G54    29.36S
HARVEY         CLOUDY    68  52  56 SW30G45   29.61S
HAZEN          CLOUDY    66  48  52 W33G44    29.70R
LINTON         CLOUDY    73  52  46 W29G41    29.81R
MANDAN         CLOUDY    68  48  49 W35G48    29.76R
OAKES            N/A     79  55  44 SW25G36   29.79R
STANLEY        MOCLDY    57  57 100 W41G55    29.53S
$$

CITY           SKY/WX    TMP DP  RH WIND       PRES   REMARKS
GRAND FORKS    PTSUNNY   77  54  44 SW25G32   29.63R
GRAND FORKS AF MOSUNNY   77  55  45 SW28G36   29.63S
DEVILS LAKE    CLOUDY    72  54  53 SW33G39   29.58S
FARGO          MOSUNNY   80  55  42 SW20G35   29.72R
CAVALIER       MOCLDY    73  54  49 SW21G29   29.55S
GRAFTON        FAIR      75  55  50 SW18G32   29.59S
GWINNER        FAIR      77  55  47 SW28G36   29.78S
LANGDON        CLOUDY    72  54  53 SW32G43   29.55S
ROLLA          MOCLDY    64  54  68 SW29G53   29.48F
WALHALLA       FAIR      72  55  56 MISG      29.54R
$$

CITY           SKY/WX    TMP DP  RH WIND       PRES   REMARKS
ABERDEEN       SUNNY     80  52  37 W22G30    29.84R
MOBRIDGE       MOSUNNY   77  50  38 W30G41    29.85R
BUFFALO          N/A     69  42  37 W37G46    29.92S
RAPID CITY     MOSUNNY   75  43  31 W15G25    30.04R
GLASGOW        PTSUNNY   61  53  75 W31G37    29.85R
SIDNEY         CLOUDY    59  52  77 W30G41    29.74R
WOLF POINT     LGT RAIN  62  52  69 W33G48    29.80R
GLENDIVE       CLOUDY    66  50  55 W45G53    29.88R
MILES CITY     PTSUNNY   69  44  40 W37G52    30.00R
$$

CITY           SKY/WX    TMP DP  RH WIND       PRES   REMARKS
BILLINGS       MOSUNNY   71  35  26 NW24G35   30.14S
GREAT FALLS    MOSUNNY   72  35  25 W14G24    30.11S
REGINA         LGT RAIN  59  57  94 N28G40    29.39R FOG
ESTEVAN        LGT RAIN  59  55  88 W26G38    29.26F
$$




USA.gov is the U.S. government's official web portal to all federal, state and local government web resources and services.